TimeCDT,TemperatureF,Dew PointF,Humidity,Sea Level PressureIn,VisibilityMPH,Wind Direction,Wind SpeedMPH,Gust SpeedMPH,PrecipitationIn,Events,Conditions,WindDirDegrees,DateUTC
12:56 AM,61.0,57.0,87,30.04,7.0,SW,3.5,-,N/A,,Overcast,220,2013-03-31 05:56:00
1:56 AM,61.0,57.0,87,30.02,5.0,Calm,Calm,-,N/A,,Scattered Clouds,0,2013-03-31 06:56:00
2:03 AM,59.0,55.4,88,30.06,1.5,Calm,Calm,-,N/A,,Scattered Clouds,0,2013-03-31 07:03:00
2:14 AM,59.0,55.4,88,30.05,0.8,Calm,Calm,-,N/A,,Partly Cloudy,0,2013-03-31 07:14:00
2:24 AM,57.2,55.4,94,30.05,0.2,Calm,Calm,-,N/A,Fog,Fog,0,2013-03-31 07:24:00
2:35 AM,57.2,55.4,94,30.05,1.0,Calm,Calm,-,N/A,,Clear,0,2013-03-31 07:35:00
2:42 AM,55.4,53.6,94,30.05,0.2,Calm,Calm,-,N/A,Fog,Fog,0,2013-03-31 07:42:00
2:49 AM,55.4,53.6,94,30.05,0.2,Calm,Calm,-,N/A,Fog,Fog,0,2013-03-31 07:49:00
2:56 AM,57.0,54.0,89,30.01,0.2,Calm,Calm,-,N/A,Fog,Fog,0,2013-03-31 07:56:00
3:20 AM,57.2,55.4,94,30.04,0.8,Calm,Calm,-,N/A,,Mostly Cloudy,0,2013-03-31 08:20:00
3:29 AM,59.0,55.4,88,30.04,1.5,SSW,3.5,-,N/A,,Mostly Cloudy,210,2013-03-31 08:29:00
3:41 AM,60.8,57.2,88,30.04,0.8,Calm,Calm,-,N/A,,Mostly Cloudy,0,2013-03-31 08:41:00
3:45 AM,59.0,55.4,88,30.03,2.0,Calm,Calm,-,N/A,,Scattered Clouds,0,2013-03-31 08:45:00
3:52 AM,59.0,55.4,88,30.03,4.0,Calm,Calm,-,N/A,,Partly Cloudy,0,2013-03-31 08:52:00
3:56 AM,59.0,55.9,90,29.99,5.0,Calm,Calm,-,N/A,,Partly Cloudy,0,2013-03-31 08:56:00
4:18 AM,59.0,55.4,88,30.03,5.0,Calm,Calm,-,N/A,,Mostly Cloudy,0,2013-03-31 09:18:00
4:24 AM,57.2,55.4,94,30.02,1.8,Calm,Calm,-,N/A,,Mostly Cloudy,0,2013-03-31 09:24:00
4:40 AM,57.2,55.4,94,30.02,0.5,Calm,Calm,-,N/A,Fog,Fog,0,2013-03-31 09:40:00
4:44 AM,57.2,55.4,94,30.02,0.2,Calm,Calm,-,N/A,Fog,Fog,0,2013-03-31 09:44:00
4:56 AM,57.0,54.0,89,29.99,0.2,Calm,Calm,-,N/A,Fog,Fog,0,2013-03-31 09:56:00
5:13 AM,55.4,53.6,94,30.02,0.2,SSE,3.5,-,N/A,Fog,Fog,150,2013-03-31 10:13:00
5:24 AM,55.4,53.6,94,30.02,0.2,Calm,Calm,-,N/A,Fog,Fog,0,2013-03-31 10:24:00
5:35 AM,53.6,51.8,94,30.02,0.2,Calm,Calm,-,N/A,Fog,Fog,0,2013-03-31 10:35:00
5:56 AM,52.0,50.0,93,29.99,0.2,Calm,Calm,-,N/A,Fog,Fog,0,2013-03-31 10:56:00
6:20 AM,53.6,50.0,88,30.03,0.2,SE,3.5,-,N/A,Fog,Fog,130,2013-03-31 11:20:00
6:32 AM,53.6,50.0,88,30.03,0.2,Calm,Calm,-,N/A,Fog,Fog,0,2013-03-31 11:32:00
6:56 AM,53.1,51.1,93,30.00,0.2,Calm,Calm,-,N/A,Fog,Fog,0,2013-03-31 11:56:00
7:53 AM,60.8,57.2,88,30.05,0.2,Calm,Calm,-,N/A,Fog,Fog,0,2013-03-31 12:53:00
7:56 AM,60.1,57.9,93,30.01,0.2,Calm,Calm,-,N/A,Fog,Fog,0,2013-03-31 12:56:00
8:12 AM,62.6,59.0,88,30.05,1.0,Calm,Calm,-,N/A,,Mist,0,2013-03-31 13:12:00
8:19 AM,62.6,60.8,94,30.05,3.0,SSE,3.5,-,N/A,,Mostly Cloudy,160,2013-03-31 13:19:00
8:32 AM,64.4,60.8,88,30.05,7.0,Calm,Calm,-,N/A,,Scattered Clouds,0,2013-03-31 13:32:00
8:56 AM,66.9,61.0,81,30.01,9.0,SSW,4.6,-,N/A,,Clear,210,2013-03-31 13:56:00
9:46 AM,69.8,60.8,73,30.05,10.0,WSW,9.2,-,N/A,,Mostly Cloudy,250,2013-03-31 14:46:00
9:53 AM,72.0,61.0,68,30.00,10.0,SW,6.9,-,N/A,,Scattered Clouds,230,2013-03-31 14:53:00
10:08 AM,71.6,60.8,69,30.04,10.0,SW,5.8,-,N/A,,Mostly Cloudy,230,2013-03-31 15:08:00
10:41 AM,75.2,57.2,53,30.04,10.0,West,6.9,-,0.00,,Mostly Cloudy,260,2013-03-31 15:41:00
10:56 AM,73.0,57.9,59,29.99,10.0,Variable,4.6,-,0.00,,Mostly Cloudy,0,2013-03-31 15:56:00
11:56 AM,75.0,57.9,55,29.99,10.0,WSW,5.8,-,N/A,,Mostly Cloudy,250,2013-03-31 16:56:00
12:56 PM,75.9,57.9,54,29.96,10.0,SSW,8.1,-,N/A,,Mostly Cloudy,210,2013-03-31 17:56:00
1:56 PM,79.0,57.0,47,29.94,10.0,SSW,15.0,19.6,N/A,,Scattered Clouds,200,2013-03-31 18:56:00
2:56 PM,77.0,55.9,48,29.92,10.0,South,17.3,23.0,N/A,,Scattered Clouds,190,2013-03-31 19:56:00
3:56 PM,77.0,57.0,50,29.91,10.0,South,18.4,29.9,N/A,,Partly Cloudy,180,2013-03-31 20:56:00
4:56 PM,75.9,57.0,52,29.88,10.0,South,16.1,23.0,N/A,,Mostly Cloudy,190,2013-03-31 21:56:00
5:56 PM,71.1,59.0,66,29.90,10.0,South,15.0,-,N/A,,Overcast,170,2013-03-31 22:56:00
6:56 PM,69.1,60.1,73,29.91,10.0,South,12.7,-,N/A,,Overcast,190,2013-03-31 23:56:00
7:56 PM,68.0,60.1,76,29.91,10.0,South,12.7,-,N/A,,Overcast,190,2013-04-01 00:56:00
8:37 PM,68.0,60.8,78,29.97,6.0,SW,8.1,-,0.00,Rain,Light Rain,220,2013-04-01 01:37:00
8:56 PM,66.9,61.0,81,29.93,6.0,SW,8.1,-,0.00,Rain,Light Rain,220,2013-04-01 01:56:00
9:05 PM,66.2,60.8,83,29.97,9.0,WSW,4.6,-,0.00,,Overcast,240,2013-04-01 02:05:00
9:21 PM,66.2,60.8,83,29.96,6.0,SSW,4.6,-,0.00,Rain,Light Rain,210,2013-04-01 02:21:00
9:56 PM,66.9,62.1,84,29.91,9.0,South,6.9,-,0.00,,Overcast,190,2013-04-01 02:56:00
10:56 PM,64.0,61.0,90,29.89,7.0,SSW,5.8,-,N/A,,Partly Cloudy,200,2013-04-01 03:56:00
11:46 PM,64.4,62.6,94,29.92,6.0,SSW,4.6,-,N/A,,Overcast,200,2013-04-01 04:46:00
11:56 PM,66.0,62.1,87,29.88,6.0,SSW,5.8,-,N/A,,Overcast,200,2013-04-01 04:56:00